GW1753 Weather Reports


time (UTC)temp
F
wind
direction
speed
knots
gust
knots
rain 1hr
in
rain 24hr
in
rain mn
in
humidity
%
barometer
mb
20260504160222 53 330 3.5 9.6 0.00 0.00 0.00 49 1018.7
20260504150647 50 289 4.3 9.6 0.00 0.00 0.00 56 1019.0
20260504150144 49 290 6.1 11.3 0.00 0.00 0.00 58 1018.9
20260504141113 48 297 6.1 9.6 0.00 0.00 0.00 62 1018.9
20260504140610 48 316 4.3 7.8 0.00 0.00 0.00 62 1018.9
20260504140105 48 275 2.6 5.2 0.00 0.00 0.00 63 1018.9
20260504130534 46 278 3.5 6.1 0.00 0.00 0.00 64 1018.9
20260504110421 45 296 0.0 0.0 0.00 0.00 0.00 62 1019.1
20260504100338 46 343 0.0 0.9 0.00 0.00 0.00 62 1019.1
20260504081731 50 49 3.5 7.0 0.00 0.00 0.00 51 1018.4
20260504081228 50 26 3.5 6.1 0.00 0.00 0.00 50 1018.4
20260504080724 50 15 0.9 3.5 0.00 0.00 0.00 50 1018.1
20260504080221 50 93 1.7 5.2 0.00 0.00 0.00 49 1018.0
20260504070148 52 30 4.3 7.0 0.00 0.00 0.00 44 1016.3
20260504060109 54 54 3.5 6.1 0.00 0.00 0.00 38 1014.6
20260504050537 57 49 10.4 15.6 0.00 0.00 0.00 38 1013.4
20260504045531 57 37 5.2 11.3 0.00 0.00 0.00 38 1012.9
20260504045026 56 35 0.0 0.9 0.00 0.00 0.00 40 1012.6
20260504044524 57 65 0.0 1.7 0.00 0.00 0.00 39 1012.4
20260504044021 57 330 0.0 1.7 0.00 0.00 0.00 39 1012.4
20260504043518 57 52 0.0 1.7 0.00 0.00 0.00 38 1012.1
20260504043015 57 326 0.0 3.5 0.00 0.00 0.00 38 1012.2
20260504042512 57 346 0.0 2.6 0.00 0.00 0.00 38 1012.2
20260504042009 58 347 0.0 0.9 0.00 0.00 0.00 37 1012.1
20260504041505 59 34 0.0 0.9 0.00 0.00 0.00 37 1011.8
20260504041001 59 44 0.0 0.9 0.00 0.00 0.00 36 1011.9
20260504040458 59 8 0.9 2.6 0.00 0.00 0.00 36 1011.6
20260504035954 59 1 0.9 3.5 0.00 0.00 0.00 36 1011.7
20260504035452 59 349 0.0 0.9 0.00 0.00 0.00 36 1011.2
20260504034948 59 345 0.0 1.7 0.00 0.00 0.00 36 1011.4
20260504034446 60 356 0.0 2.6 0.00 0.00 0.00 35 1011.1
20260504033943 60 62 1.7 5.2 0.00 0.00 0.00 34 1011.1
20260504033441 61 25 0.0 6.1 0.00 0.00 0.00 34 1010.9
20260504032938 61 345 2.6 6.1 0.00 0.00 0.00 33 1011.0
20260504032434 61 39 2.6 5.2 0.00 0.00 0.00 32 1010.7
20260504031931 61 21 2.6 6.1 0.00 0.00 0.00 31 1010.7
20260504031428 61 60 0.0 7.0 0.00 0.00 0.00 31 1010.6
20260504030925 60 29 0.0 1.7 0.00 0.00 0.00 30 1010.3
20260504030422 61 13 0.0 0.0 0.00 0.00 0.00 28 1010.3
20260504025917 61 25 0.0 0.0 0.00 0.00 0.00 28 1010.0
20260504025415 61 326 0.9 3.5 0.00 0.00 0.00 27 1010.3
20260504024912 61 338 0.0 0.9 0.00 0.00 0.00 27 1010.2
20260504024409 61 347 0.0 0.9 0.00 0.00 0.00 26 1010.2
20260504023906 62 352 0.0 0.9 0.00 0.00 0.00 26 1010.2
20260504023402 63 325 0.0 0.0 0.00 0.00 0.00 26 1010.3
20260504022857 64 345 0.0 0.0 0.00 0.00 0.00 25 1010.2
20260504022354 65 306 0.0 1.7 0.00 0.00 0.00 24 1010.3
20260504021851 65 311 0.0 1.7 0.00 0.00 0.00 25 1010.2
20260504021348 66 358 0.0 0.0 0.00 0.00 0.00 25 1010.0
20260504020845 67 325 0.0 0.0 0.00 0.00 0.00 24 1010.0
20260504020342 68 356 0.0 0.9 0.00 0.00 0.00 23 1010.2
20260504015838 69 311 0.0 1.7 0.00 0.00 0.00 23 1010.2
20260504015334 69 3 0.9 2.6 0.00 0.00 0.00 22 1010.2
20260504014831 71 38 0.9 3.5 0.00 0.00 0.00 22 1010.2
20260504014326 72 304 0.0 5.2 0.00 0.00 0.00 22 1010.0
20260504013825 72 336 0.9 5.2 0.00 0.00 0.00 21 1010.2
20260504013322 73 9 5.2 7.0 0.00 0.00 0.00 21 1010.2
20260504012819 73 317 1.7 7.8 0.00 0.00 0.00 21 1010.0
20260504012316 73 336 2.6 5.2 0.00 0.00 0.00 21 1010.0
20260504011814 73 0 1.7 3.5 0.00 0.00 0.00 20 1009.8
20260504011310 74 353 0.9 3.5 0.00 0.00 0.00 20 1010.0
20260504010806 75 338 1.7 5.2 0.00 0.00 0.00 20 1010.0
20260504010301 75 323 2.6 7.8 0.00 0.00 0.00 19 1010.2
20260504005759 75 351 2.6 6.1 0.00 0.00 0.00 20 1010.2
20260504005255 75 19 2.6 5.2 0.00 0.00 0.00 19 1010.4
20260504004753 76 319 1.7 3.5 0.00 0.00 0.00 19 1010.3
20260504004250 76 345 0.0 7.8 0.00 0.00 0.00 19 1010.5
20260504003747 75 326 9.6 12.2 0.00 0.00 0.00 19 1010.4
20260504003244 76 332 4.3 7.8 0.00 0.00 0.00 18 1010.4
20260504002740 77 347 3.5 6.1 0.00 0.00 0.00 18 1010.4
20260504002237 76 344 5.2 9.6 0.00 0.00 0.00 18 1010.6
20260504001735 77 355 7.0 13.0 0.00 0.00 0.00 18 1010.7
20260504001232 77 318 3.5 6.1 0.00 0.00 0.00 18 1010.4
20260504000728 77 357 3.5 7.0 0.00 0.00 0.00 19 1010.5
20260504000226 77 304 4.3 12.2 0.00 0.00 0.00 18 1010.5
20260503235724 77 300 3.5 8.7 0.00 0.00 0.00 17 1010.5
20260503235220 77 342 7.8 9.6 0.00 0.00 0.00 17 1010.6
20260503234718 77 308 7.0 9.6 0.00 0.00 0.00 17 1010.6
20260503234216 77 285 2.6 6.1 0.00 0.00 0.00 18 1010.6
20260503233713 77 12 6.1 9.6 0.00 0.00 0.00 18 1010.8
20260503233208 77 324 4.3 8.7 0.00 0.00 0.00 18 1010.8
20260503232705 77 337 7.0 8.7 0.00 0.00 0.00 17 1010.8
20260503232203 77 280 6.1 7.8 0.00 0.00 0.00 17 1010.7
20260503231701 77 325 5.2 7.8 0.00 0.00 0.00 17 1010.8
20260503231157 77 324 7.0 9.6 0.00 0.00 0.00 18 1010.8
20260503230654 77 294 2.6 7.8 0.00 0.00 0.00 18 1010.9
20260503230151 77 13 10.4 12.2 0.00 0.00 0.00 17 1011.0
20260503225648 77 338 5.2 8.7 0.00 0.00 0.00 18 1011.0
20260503225148 77 280 1.7 7.8 0.00 0.00 0.00 18 1011.1
20260503224646 77 317 4.3 6.1 0.00 0.00 0.00 18 1011.1
20260503224143 77 337 3.5 7.8 0.00 0.00 0.00 18 1011.4
20260503223641 77 303 2.6 8.7 0.00 0.00 0.00 19 1011.4
20260503223137 77 346 7.8 13.0 0.00 0.00 0.00 18 1011.2
20260503222635 77 306 5.2 7.0 0.00 0.00 0.00 17 1011.5
20260503222132 76 356 5.2 7.8 0.00 0.00 0.00 18 1011.6
20260503221631 77 358 2.6 8.7 0.00 0.00 0.00 18 1011.6
20260503221128 76 286 3.5 11.3 0.00 0.00 0.00 19 1011.6
20260503220624 76 274 6.1 13.0 0.00 0.00 0.00 17 1011.7
20260503220121 76 268 5.2 8.7 0.00 0.00 0.00 18 1011.8
20260503215618 76 294 8.7 13.9 0.00 0.00 0.00 17 1011.6
20260503215114 77 312 6.1 12.2 0.00 0.00 0.00 18 1011.9
20260503214614 76 254 6.1 8.7 0.00 0.00 0.00 18 1011.8
20260503214109 77 302 4.3 7.8 0.00 0.00 0.00 19 1011.8
20260503213608 76 308 3.5 9.6 0.00 0.00 0.00 19 1012.2
20260503213103 75 270 9.6 12.2 0.00 0.00 0.00 19 1012.0
20260503212601 77 318 6.1 12.2 0.00 0.00 0.00 19 1012.2
20260503212059 76 274 6.1 8.7 0.00 0.00 0.00 19 1012.2
20260503211556 76 306 5.2 11.3 0.00 0.00 0.00 19 1012.3
20260503211051 76 297 3.5 5.2 0.00 0.00 0.00 18 1012.2
20260503210548 75 272 5.2 7.0 0.00 0.00 0.00 19 1012.3
20260503210043 76 299 3.5 8.7 0.00 0.00 0.00 18 1012.6
20260503205541 76 320 7.0 13.0 0.00 0.00 0.00 19 1012.4
20260503205037 76 301 5.2 9.6 0.00 0.00 0.00 19 1012.8
20260503204534 76 301 3.5 7.0 0.00 0.00 0.00 19 1012.8
20260503204031 76 325 3.5 11.3 0.00 0.00 0.00 17 1012.9
20260503203528 75 326 4.3 7.8 0.00 0.00 0.00 20 1012.9
20260503203025 76 328 7.8 9.6 0.00 0.00 0.00 16 1013.0
20260503202523 76 348 9.6 12.2 0.00 0.00 0.00 16 1013.0
20260503202021 76 328 6.1 8.7 0.00 0.00 0.00 18 1013.1
20260503201519 75 255 7.8 14.8 0.00 0.00 0.00 18 1013.1
20260503201016 75 282 6.1 12.2 0.00 0.00 0.00 20 1013.1
20260503200512 73 299 7.8 12.2 0.00 0.00 0.00 21 1013.1
20260503200009 73 266 7.0 11.3 0.00 0.00 0.00 21 1013.2
20260503195506 76 270 4.3 11.3 0.00 0.00 0.00 22 1013.2
20260503195002 73 283 5.2 11.3 0.00 0.00 0.00 21 1013.4
20260503194500 73 313 11.3 13.9 0.00 0.00 0.00 21 1013.4
20260503193955 73 282 3.5 7.8 0.00 0.00 0.00 22 1013.5
20260503193451 74 278 3.5 12.2 0.00 0.00 0.00 20 1013.8
20260503192946 73 276 5.2 9.6 0.00 0.00 0.00 22 1013.8
20260503192443 74 252 3.5 11.3 0.00 0.00 0.00 22 1014.0
20260503191938 73 305 7.8 12.2 0.00 0.00 0.00 21 1014.0
20260503191436 73 290 6.1 9.6 0.00 0.00 0.00 22 1013.9
20260503190932 74 279 8.7 13.0 0.00 0.00 0.00 20 1014.0
20260503190430 74 295 7.8 13.0 0.00 0.00 0.00 21 1014.1
20260503185927 73 285 6.1 9.6 0.00 0.00 0.00 21 1014.1
20260503185423 72 272 4.3 9.6 0.00 0.00 0.00 22 1014.2
20260503184922 73 308 7.0 11.3 0.00 0.00 0.00 21 1014.3
20260503184419 73 256 7.0 12.2 0.00 0.00 0.00 22 1014.5
20260503183916 72 297 5.2 8.7 0.00 0.00 0.00 22 1014.4
20260503183412 73 261 7.0 13.0 0.00 0.00 0.00 23 1014.4
20260503182909 72 302 6.1 11.3 0.00 0.00 0.00 23 1014.6
20260503182409 72 285 5.2 12.2 0.00 0.00 0.00 24 1014.7
20260503181905 72 281 5.2 9.6 0.00 0.00 0.00 24 1014.9
20260503181402 72 276 4.3 7.0 0.00 0.00 0.00 25 1015.0
20260503180858 72 290 6.1 12.2 0.00 0.00 0.00 25 1015.2
20260503180356 71 282 5.2 7.0 0.00 0.00 0.00 26 1015.2
20260503175853 72 344 5.2 7.8 0.00 0.00 0.00 25 1015.2
20260503175351 70 295 2.6 6.1 0.00 0.00 0.00 28 1015.3
20260503174846 71 299 6.1 9.6 0.00 0.00 0.00 28 1015.2
20260503174345 71 292 3.5 9.6 0.00 0.00 0.00 27 1015.4
20260503173839 69 280 2.6 8.7 0.00 0.00 0.00 29 1015.3
20260503173336 68 262 5.2 7.0 0.00 0.00 0.00 29 1015.4
20260503172833 68 243 3.5 7.0 0.00 0.00 0.00 29 1015.6
20260503172331 68 283 3.5 8.7 0.00 0.00 0.00 31 1015.5
20260503171826 67 291 2.6 7.8 0.00 0.00 0.00 31 1015.4
20260503171323 68 263 5.2 9.6 0.00 0.00 0.00 31 1015.6
20260503170821 68 276 4.3 11.3 0.00 0.00 0.00 33 1015.5
20260503170317 67 272 7.8 9.6 0.00 0.00 0.00 33 1015.6